Location: Newark
(41.6500°N, 71.4833°W)
Time: 20:20:37
(UTC+00:00)

deb Explorer IX - Pass Details

Date: 30 January 2020
Orbit: 549 x 1099 km, 38.8° (Epoch: 18 February)

Event Time Altitude Azimuth Distance (km) Brightness Sun altitude
Rises 00:42:24 0° 236° (SW) 3,483 ? -30.9°
Reaches altitude 10° 00:44:55 10° 230° (SW) 2,624 ? -31.4°
Enters shadow 00:49:22 40° 196° (SSW) 1,427 ? -32.2°
Maximum altitude 00:51:02 48° 158° (SSE) 1,304 - -32.5°
Drops below altitude 10° 00:57:49 10° 87° (E) 2,911 - -33.8°
Sets 01:00:44 0° 82° (E) 3,896 - -34.3°
